Lapse_Rate
6.8 6.8 6.8 6.6 6.6 6.5 6.4 6.4 6.5 6.9 6.8 6.7 6.8 6.8 6.7 6.7 6.7 6.8 6.6 6.5 6.5 6.5 6.5 6.6 6.7 6.7 6.7 6.6 6.8 7.2 7.2 7.2 7.2 7.4 7.4 7.6 7.5 7.8 7.7 7.6 7.6 7.6 7.6 7.4 7.2
6.8 6.8 6.8 6.7 6.6 6.6 6.5 6.5 6.6 6.8 7.0 6.8 6.7 6.8 6.9 6.9 6.8 6.8 6.7 6.6 6.5 6.7 6.7 6.5 6.6 6.6 6.7 6.7 6.8 6.7 6.9 7.1 7.1 7.1 7.2 7.5 7.3 7.4 7.4 7.3 7.3 7.5 7.5 7.4 7.3
6.8 6.8 6.8 6.7 6.7 6.7 6.6 6.5 6.6 6.6 7.0 7.2 7.0 6.9 6.8 7.0 7.0 6.8 6.8 6.7 6.7 6.7 6.8 6.8 6.9 6.9 6.8 6.9 7.0 7.1 7.5 7.1 7.4 7.3 6.9 7.1 7.0 7.2 7.2 7.2 7.2 7.4 7.6 7.6 7.3
6.8 6.8 6.7 6.8 6.8 6.7 6.9 6.6 6.5 6.6 6.8 7.1 7.2 7.1 7.1 7.0 7.1 6.7 6.7 6.7 6.8 6.8 6.8 6.8 7.1 7.2 7.0 6.9 7.0 7.2 7.7 7.3 7.8 7.5 7.3 7.3 7.0 7.0 7.1 7.1 7.0 7.2 7.3 7.4 7.2
6.6 6.8 6.7 6.8 6.8 6.6 6.8 6.8 6.6 6.6 6.8 7.0 7.2 7.2 7.5 7.1 7.1 6.7 6.6 6.9 7.0 6.8 6.9 6.9 7.1 7.2 7.3 7.1 7.2 7.5 7.7 7.6 7.9 7.7 7.3 7.4 7.2 6.9 7.0 7.1 7.0 7.1 7.2 7.3 7.3
6.6 6.7 6.7 6.8 6.8 6.7 6.8 6.8 6.8 6.6 6.8 7.0 7.3 7.3 7.3 7.2 7.0 7.0 6.7 6.8 7.0 6.7 6.9 7.0 7.1 7.2 7.2 7.3 7.2 7.5 7.7 7.8 7.8 7.9 7.6 7.3 7.2 7.2 7.8 7.0 6.9 6.8 6.8 6.9 7.0
6.6 6.6 6.7 6.6 6.7 6.7 6.7 6.8 6.8 6.7 6.8 6.8 7.3 7.4 7.5 7.4 7.1 7.1 6.8 6.6 6.7 6.7 6.8 6.9 7.0 6.9 7.0 7.3 7.0 7.4 7.3 7.6 7.7 7.5 7.4 7.3 7.3 7.2 7.6 7.4 7.2 7.1 7.2 7.0 6.9
6.4 6.4 6.6 6.6 6.7 6.8 6.8 6.8 6.7 6.8 6.8 7.0 7.1 7.5 7.5 7.6 7.4 7.0 6.8 6.6 6.3 6.2 6.6 6.7 6.7 6.7 6.8 7.0 7.1 7.0 6.8 7.2 7.7 7.6 7.7 7.6 7.9 7.7 7.4 7.6 7.7 7.6 7.3 7.0 6.9
6.3 6.4 6.4 6.4 6.7 6.8 6.8 6.8 6.7 6.8 6.9 6.9 7.2 7.4 7.6 7.4 7.4 7.0 7.0 6.8 6.3 6.4 6.3 6.3 6.6 6.5 6.6 6.8 7.0 7.0 6.9 7.1 7.5 7.2 7.4 7.3 7.9 7.7 7.6 7.6 7.6 7.5 7.1 6.9 6.8
6.5 6.4 6.5 6.4 6.5 6.6 6.7 6.7 6.7 6.8 6.8 7.1 7.1 7.5 7.3 7.2 6.9 7.0 6.8 6.6 6.6 6.4 6.6 6.5 6.5 6.6 6.8 6.8 7.1 6.9 6.8 7.0 7.1 7.2 7.1 7.0 7.5 7.6 7.4 7.4 7.4 7.4 7.2 7.0 6.9
6.5 6.3 6.3 6.3 6.5 6.4 6.5 6.5 6.7 6.7 6.9 7.2 7.1 7.5 7.5 7.2 7.0 7.0 6.2 6.4 6.0 6.5 6.7 6.3 6.5 7.3 7.1 6.8 6.7 6.6 6.6 6.7 7.1 6.9 7.2 7.3 7.2 7.4 7.5 7.1 7.3 7.2 7.0 6.9 7.1
6.4 6.5 6.3 6.3 6.4 6.5 6.5 6.5 6.5 6.3 7.2 7.3 7.3 7.4 7.4 7.3 7.3 6.5 6.5 6.2 6.0 6.5 6.5 6.5 7.2 7.3 6.7 6.6 6.7 6.8 6.6 6.8 7.1 7.5 7.3 7.2 7.1 7.5 7.6 7.7 7.4 7.6 7.6 7.7 7.5
6.2 6.3 6.1 6.3 6.2 6.3 6.3 6.4 6.4 6.1 6.3 7.8 7.7 7.7 7.5 7.2 7.1 6.9 6.5 6.3 5.9 6.1 6.3 6.6 6.7 7.2 7.0 6.7 6.9 7.1 7.2 7.3 7.1 7.2 7.2 7.1 7.2 7.8 8.2 7.7 7.6 7.5 7.5 7.5 7.4
6.4 6.2 6.1 6.0 6.0 6.2 6.1 6.3 6.0 5.9 5.8 7.3 7.3 7.5 7.3 7.2 7.1 7.3 6.6 6.2 5.8 5.9 6.1 6.4 6.5 6.7 6.7 6.9 6.9 7.0 7.3 7.2 7.2 7.0 6.8 6.8 5.5 7.2 8.1 7.9 7.6 7.6 7.5 7.5 7.4
5.9 6.0 6.0 5.9 6.0 6.2 6.1 6.0 5.7 5.8 4.0 6.9 6.8 7.1 7.2 7.3 7.1 6.8 6.7 6.5 6.1 5.8 6.1 6.6 6.6 6.7 7.0 7.5 6.9 7.2 7.0 6.9 6.7 6.5 6.2 6.3 6.0 6.5 7.2 7.5 7.6 7.6 7.5 7.5 7.4
6.0 5.9 6.2 6.2 6.2 6.0 6.0 5.6 5.4 5.1 4.2 6.7 6.7 6.9 7.0 7.0 7.5 7.0 6.9 6.6 6.6 6.3 6.3 6.7 6.6 6.8 7.1 7.1 6.9 6.8 6.9 6.8 6.7 6.7 5.4 6.6 5.9 5.7 7.1 7.3 7.3 7.4 7.5 7.3 7.3
5.9 5.8 5.8 6.3 6.2 5.6 5.8 5.4 5.1 4.0 5.7 6.9 6.9 6.9 6.7 6.9 7.3 7.2 7.0 6.7 6.7 6.4 6.6 6.9 6.8 6.9 7.1 7.1 7.2 7.1 6.9 6.4 5.5 5.3 4.8 6.3 5.5 6.1 6.7 7.0 7.2 7.0 6.6 6.7 7.0
5.8 5.7 5.7 6.1 5.5 5.5 5.9 5.1 3.9 4.5 5.7 7.0 6.9 6.7 6.7 7.0 7.0 7.2 7.3 7.0 6.7 6.5 6.6 6.5 6.8 7.3 7.4 7.3 7.3 7.2 7.1 6.6 5.6 4.9 5.0 6.2 5.6 6.2 6.6 6.9 7.0 6.8 6.6 6.7 6.5
6.3 5.8 5.6 6.2 5.7 5.5 5.9 4.1 4.2 4.4 5.7 6.8 7.0 6.6 6.5 6.8 6.8 7.0 7.2 7.4 7.2 6.9 6.7 6.6 6.5 7.0 7.2 7.3 7.4 6.9 6.8 7.2 6.7 6.2 4.7 5.7 5.8 5.9 6.1 7.0 7.0 6.8 6.7 6.7 6.6
6.0 5.8 5.6 6.5 5.7 5.5 5.2 4.0 4.1 4.8 5.6 6.3 6.8 6.6 6.6 6.7 6.6 6.9 6.9 6.8 7.1 7.0 6.6 6.5 6.3 6.6 6.9 7.0 7.0 7.0 7.0 6.9 6.6 5.4 4.7 4.9 5.2 5.8 6.2 6.6 6.3 6.8 6.8 6.6 6.4
6.0 5.6 5.2 6.2 6.1 5.2 4.2 4.1 4.2 4.4 5.5 5.8 6.8 6.8 6.4 6.6 6.7 6.8 6.6 6.8 6.6 6.7 6.9 6.4 6.2 6.2 6.5 6.6 6.8 7.0 6.7 6.7 6.8 6.8 4.9 4.2 4.6 5.7 6.1 6.2 6.5 6.7 6.5 6.3 6.3
5.5 5.6 5.0 5.7 6.1 5.2 4.4 4.7 4.3 4.3 4.8 5.5 5.5 6.3 6.3 6.4 6.7 6.7 6.6 6.9 6.8 6.5 6.4 6.4 6.0 5.6 6.1 6.4 6.4 6.4 6.2 6.2 6.4 5.8 6.2 5.5 4.5 5.6 6.0 6.5 6.6 6.6 6.1 6.1 6.1
5.7 5.0 5.4 5.2 5.3 5.0 4.6 4.5 4.5 3.7 4.6 4.9 4.9 5.4 6.1 5.9 5.9 6.0 6.3 6.7 6.7 6.5 6.3 6.3 5.8 5.2 5.2 5.7 5.7 5.7 6.0 6.2 6.3 5.9 5.4 5.4 4.4 5.8 5.9 6.3 6.6 6.4 6.2 6.0 6.2
5.7 5.5 5.5 5.2 5.1 5.2 4.9 4.6 4.4 4.1 3.8 4.4 4.8 5.4 5.8 5.9 5.6 5.5 5.8 6.1 6.1 6.2 6.4 6.5 6.1 5.7 5.5 6.0 5.8 5.5 5.2 5.4 5.8 5.2 5.2 4.9 5.4 5.7 5.9 6.4 6.6 6.4 6.4 6.4 6.2
6.2 5.2 5.3 4.8 4.6 4.8 5.3 4.8 4.5 4.0 3.9 4.5 4.1 4.3 4.9 5.2 5.2 5.3 5.8 5.8 5.7 5.9 6.2 5.8 5.3 5.9 5.7 5.5 5.2 5.2 4.8 5.2 5.1 4.7 4.4 5.0 5.3 5.5 6.7 6.8 6.6 6.3 6.5 6.5 6.5
6.1 5.5 5.4 5.1 5.1 5.3 5.2 5.1 4.7 4.5 4.4 4.8 4.7 4.8 5.1 4.9 4.8 5.3 6.0 5.6 5.6 5.3 5.2 5.3 5.3 5.3 5.2 5.7 5.5 5.1 5.0 4.9 4.9 5.2 5.2 5.1 4.6 6.1 7.2 6.7 6.5 6.4 6.2 6.2 6.2
5.3 5.5 5.3 4.7 4.9 4.9 4.9 4.9 5.5 5.3 4.9 4.7 5.0 5.2 5.0 4.7 5.2 5.2 5.4 5.3 5.2 5.2 5.1 5.2 5.1 5.1 5.0 5.4 5.4 4.6 4.0 4.8 5.2 5.8 6.2 5.1 7.2 7.1 6.4 6.6 6.5 6.6 6.5 6.4 6.4
Wind_Speed
4 5 6 11 12 16 17 18 20 23 21 21 22 28 25 22 21 3 2 3 0 4 1 5 0 4 3 3 3 3 3 1 4 2 6 4 5 6 3 4 2 2 2 4 13
8 7 8 10 12 15 19 20 22 22 20 21 24 27 27 21 4 3 2 3 5 8 4 6 4 5 3 1 1 4 3 5 5 3 5 7 3 3 5 4 1 2 5 11 13
8 9 9 11 12 16 19 23 24 22 21 20 24 26 27 9 2 3 4 6 5 4 2 2 2 1 1 2 3 3 5 5 8 12 6 4 5 2 2 3 4 5 7 11 14
9 9 11 11 14 15 20 24 24 24 22 20 23 25 29 2 1 3 6 6 3 3 4 2 3 2 1 1 2 2 7 3 6 5 4 4 3 4 4 7 6 7 12 12 14
11 9 12 11 14 16 18 23 25 26 21 18 21 23 7 5 4 4 4 2 3 2 3 3 2 1 2 1 4 5 3 5 8 8 6 5 7 4 6 7 2 10 13 13 15
12 11 12 13 14 19 22 22 23 28 21 16 19 18 2 5 2 3 3 4 4 1 3 1 2 3 4 2 2 3 5 8 6 8 6 6 5 3 9 5 6 10 13 13 14
13 12 12 13 16 19 24 26 23 25 22 18 13 2 2 10 1 6 4 4 3 2 2 2 1 4 2 6 2 4 6 8 5 4 6 8 7 7 8 2 8 11 12 12 15
14 14 12 13 15 19 25 30 28 22 21 13 3 2 6 3 6 6 2 3 4 3 3 4 2 1 2 5 8 4 3 5 5 6 5 3 12 8 7 1 9 9 8 7 8
15 13 13 13 14 18 24 31 32 21 10 4 3 2 8 8 1 5 5 3 2 1 1 2 2 0 5 2 5 4 3 2 8 4 3 2 7 6 4 5 6 6 2 5 4
16 13 12 13 13 16 25 31 24 7 4 3 1 2 4 3 1 3 2 2 4 1 5 3 4 2 3 3 4 3 3 4 5 6 7 5 7 8 7 6 8 8 0 6 5
16 13 12 12 12 12 10 5 5 3 4 5 6 6 5 6 4 3 4 3 3 3 4 2 2 7 10 7 3 4 4 5 6 4 4 3 6 11 10 6 9 10 8 8 9
18 15 12 9 9 9 2 2 2 3 9 10 17 10 9 2 4 6 5 5 4 6 3 3 7 9 5 6 7 6 5 5 5 3 1 6 10 14 9 7 7 9 7 11 5
19 15 11 5 7 3 2 5 1 5 4 6 5 5 3 8 6 5 7 4 3 5 5 5 5 4 9 5 5 4 4 4 5 4 5 5 8 7 5 4 6 6 5 7 9
19 16 11 5 2 2 4 5 4 4 4 7 4 5 4 5 3 5 4 4 2 8 6 6 6 4 1 3 5 2 4 3 4 5 4 3 5 7 7 7 6 7 2 8 10
20 18 15 12 3 3 2 9 1 4 3 5 3 3 3 5 5 4 4 3 2 2 5 7 3 5 7 7 5 7 3 1 1 3 4 1 0 7 5 7 5 2 4 6 8
22 20 17 2 1 6 5 7 3 5 7 5 4 5 3 3 3 3 2 2 2 0 3 8 2 5 7 5 6 3 2 4 4 3 2 6 6 5 4 4 3 2 4 8 8
25 24 15 11 4 3 3 3 2 4 4 5 5 5 4 5 4 6 5 4 5 3 3 3 4 3 3 3 1 4 5 3 4 2 6 2 3 8 6 8 6 10 9 8 8
25 25 14 6 7 9 3 2 11 7 8 3 3 4 7 7 5 7 5 3 4 3 2 3 6 5 3 8 7 6 8 5 6 4 5 4 6 6 5 7 4 9 9 8 8
25 6 4 9 12 2 4 12 7 9 6 4 2 4 5 5 6 4 8 6 8 10 8 6 5 3 3 3 6 3 4 4 1 2 3 5 8 7 2 3 4 12 13 12 9
7 6 9 18 19 3 8 22 9 8 4 3 10 7 10 6 7 8 8 5 5 10 5 5 3 4 5 2 1 5 5 2 2 4 6 5 6 6 6 7 6 9 14 10 10
7 5 10 27 11 6 18 11 17 6 5 8 8 4 7 7 7 6 7 3 5 3 5 6 5 5 2 5 8 2 3 2 3 4 5 8 7 7 9 9 13 15 12 13 10
5 10 16 17 12 10 22 22 9 14 11 7 4 8 9 9 6 7 9 8 7 7 7 4 5 5 9 1 2 2 5 6 5 6 4 3 22 6 9 9 9 10 9 8 8
4 3 13 18 15 19 17 24 22 10 11 8 9 7 5 9 4 7 7 3 9 10 10 8 4 0 2 3 1 5 5 7 2 2 11 7 13 3 5 7 8 9 9 9 10
4 4 3 12 14 27 21 19 28 25 15 18 9 7 5 8 8 6 6 6 1 3 5 9 6 8 15 3 4 4 5 5 6 3 6 21 28 13 8 9 5 8 8 9 9
3 4 5 8 14 20 23 12 19 19 24 20 18 22 18 17 19 20 6 2 3 3 1 4 11 7 14 10 8 15 21 17 19 18 11 20 21 3 9 9 11 13 11 10 9
4 3 2 3 22 19 18 25 24 22 10 27 20 20 17 26 22 16 19 11 12 3 7 1 7 5 19 8 12 20 28 21 25 26 24 28 38 21 25 15 11 10 11 12 8
1 1 2 7 12 16 24 28 26 21 17 24 24 21 23 31 22 20 13 13 9 15 11 8 6 7 25 10 9 16 20 24 24 27 26 26 38 25 12 12 16 16 12 12 11
Wind_Direction
284 305 323 324 341 333 336 336 337 331 335 333 333 328 332 330 326 135 161 240 7 23 15 297 18 12 77 102 143 119 66 244 267 267 287 320 2 322 319 113 193 131 155 269 135
289 304 318 322 332 331 330 333 334 330 332 334 332 329 327 335 358 50 276 269 311 358 13 18 354 7 25 99 188 108 125 229 212 267 301 315 304 292 20 2 348 23 20 123 127
281 300 307 313 325 326 329 330 330 328 332 339 330 330 324 333 1 322 211 247 297 348 301 330 306 24 309 114 204 178 205 232 271 251 235 246 273 232 120 327 240 210 168 149 143
268 288 301 314 321 326 327 326 325 324 331 333 331 330 320 304 57 265 223 250 295 312 316 358 359 9 271 238 234 280 244 219 281 332 286 234 231 254 187 225 218 203 169 155 167
264 276 293 309 315 317 321 320 320 316 323 330 329 330 354 2 257 253 218 274 299 294 304 314 351 277 232 286 321 199 260 286 275 291 255 276 250 236 260 248 197 137 166 176 186
266 277 290 302 313 315 317 317 317 313 317 324 324 325 7 341 243 320 259 326 226 186 288 164 262 247 282 242 188 282 277 276 274 252 232 230 248 147 253 112 154 168 191 191 196
256 272 285 299 311 316 315 314 312 308 309 310 309 299 90 238 308 326 257 227 177 167 286 236 224 37 338 311 324 283 308 313 249 279 250 174 293 227 261 274 194 201 212 206 212
254 266 277 291 306 317 318 314 309 304 301 305 263 206 243 246 299 307 200 309 294 182 217 270 215 143 182 308 349 347 37 337 302 339 328 134 261 273 281 287 271 225 221 218 243
247 262 277 291 308 319 319 312 304 306 296 160 123 164 270 316 260 262 164 225 296 313 276 270 92 7 13 61 356 353 255 262 309 29 301 72 262 286 357 335 277 219 178 159 208
246 259 273 288 306 323 321 306 294 313 107 174 283 21 283 244 117 326 291 178 220 331 6 53 52 76 33 87 228 225 307 270 263 311 7 337 283 310 303 324 297 294 217 188 189
237 247 265 282 304 334 348 347 15 330 15 212 253 252 293 277 317 257 233 134 99 70 163 312 115 214 215 207 249 300 257 251 270 279 11 308 299 284 285 220 246 252 254 206 191
227 237 248 271 301 332 1 82 215 243 299 236 246 268 260 117 301 279 112 146 141 195 167 18 248 237 199 214 239 239 247 266 274 260 222 249 269 269 256 248 239 253 207 200 168
221 225 232 252 303 359 224 243 228 19 289 287 212 211 226 138 205 259 141 142 156 177 196 173 239 357 175 233 223 233 210 239 238 330 274 341 290 282 280 258 270 258 230 188 150
216 213 206 178 8 207 256 298 274 132 12 278 246 242 135 143 249 211 169 141 168 208 179 232 260 287 211 235 159 293 229 249 311 23 284 45 280 290 284 289 273 355 79 140 134
209 204 187 175 167 163 302 344 38 65 338 248 173 130 150 163 149 223 172 86 184 149 119 253 214 192 211 220 160 230 164 276 285 235 328 121 86 269 331 308 284 351 132 132 128
198 197 165 69 18 235 344 341 58 54 242 292 157 183 144 231 190 120 141 63 159 175 190 243 271 179 209 215 178 89 40 42 58 111 279 224 172 276 252 215 257 167 159 146 133
188 179 168 147 214 196 78 54 75 177 287 234 200 171 207 194 210 161 165 186 171 138 249 316 248 260 172 227 127 101 75 318 328 341 233 237 306 235 260 272 233 179 169 156 149
180 167 199 169 210 128 84 119 225 206 219 314 157 141 183 170 228 176 149 209 245 106 102 191 314 186 178 189 188 183 158 173 237 227 250 314 248 248 232 303 276 140 144 153 173
153 185 181 201 185 88 157 217 202 175 214 220 82 161 222 228 181 152 198 201 198 170 181 178 258 305 169 161 140 176 169 197 242 307 341 240 291 313 180 38 127 146 163 179 190
181 191 201 170 161 104 208 227 203 188 199 222 193 187 189 208 178 174 182 216 209 183 177 214 249 257 268 149 101 160 163 66 1 281 266 263 267 235 249 223 190 182 189 191 200
194 209 173 161 163 193 218 217 209 228 200 200 215 210 204 192 206 202 204 221 162 136 141 159 160 260 218 191 186 164 195 136 163 154 239 292 256 220 222 210 197 206 196 196 193
219 212 160 152 188 211 222 209 174 200 235 256 235 200 187 194 214 218 205 190 160 150 167 202 161 190 213 202 87 175 207 182 207 239 221 221 266 207 218 221 194 208 192 198 189
202 179 173 173 197 213 216 221 215 174 194 206 219 200 194 188 224 212 218 203 163 162 168 187 194 246 265 335 12 210 201 200 180 92 232 238 258 9 204 216 219 195 197 194 198
147 180 215 198 206 210 210 215 215 208 215 210 211 205 178 201 222 226 213 216 276 236 195 149 198 190 244 219 140 195 209 169 164 162 272 239 274 254 281 259 245 220 209 201 200
155 232 177 198 205 215 205 195 207 211 213 192 224 220 208 231 228 234 193 49 2 321 331 172 242 222 250 227 240 255 250 242 251 243 234 262 261 198 243 242 233 221 205 205 213
166 175 204 196 203 205 193 213 208 207 170 216 222 204 226 229 216 232 229 202 209 173 165 125 249 219 259 229 240 255 250 241 239 245 248 255 262 243 259 250 244 229 223 222 206
141 288 246 182 193 198 211 216 215 213 226 222 217 228 225 229 234 241 236 226 211 201 185 165 194 197 255 217 225 259 250 234 238 235 234 242 249 277 255 247 237 238 223 213 181